New Roads False River Regiona, LA

12:15 PM CST on December 15, 2019 (GMT -0600)
False River

Weather History for KHZR - August, 2019

Change the Weather History Date:

Wednesday, August 7, 2019

  Actual Average (KBTR) Record (KBTR)
Temperature  
Mean Temperature 83 °F -  
Max Temperature 91 °F 91 °F 102 °F (1921)
Min Temperature 75 °F 72 °F 65 °F (1909)
Cooling Degree Days 18    
Growing Degree Days 33 (Base 50)    
Moisture  
Dew Point 76 °F    
Average Humidity 81    
Maximum Humidity 100    
Minimum Humidity 55    
Precipitation  
Precipitation 0.07 in - - ()
Sea Level Pressure  
Sea Level Pressure 29.96 in    
Wind  
Wind Speed 2 mph (SW)    
Max Wind Speed 14 mph    
Max Gust Speed 20 mph    
Visibility 10 miles    
Events Rain , Thunderstorm    
Averages and records for this station are not official NWS values.
T = Trace of Precipitation, MM = Missing Value Source: NWS Daily Summary

Daily Weather History Graph

Daily Weather History Graph

Search for Another Location

Airport or City:

Astronomy

Aug. 07, 2019 Rise Set
Actual Time 6:27 AM CDT 7:55 PM CDT
Civil Twilight 6:01 AM CDT 8:21 PM CDT
Nautical Twilight 5:30 AM CDT 8:52 PM CDT
Astronomical Twilight 4:58 AM CDT 9:24 PM CDT
Moon 1:29 PM CDT (8/7) 12:09 AM CDT (8/7)
Length of Visible Light 14h 20m
Length of Day
13h 28m
Waxing Crescent, 50% of the Moon is Illuminated
Aug 7
Waxing Crescent
Aug 7
First Quarter
Aug 15
Full
Aug 23
Last Quarter
Aug 30
New

Hourly Weather History & Observations

Time (CDT) Temp. Heat Index Dew Point Humidity Pressure Visibility Wind Dir Wind Speed Gust Speed Precip Events Conditions
12:16 AM 77.0 °F - 75.2 °F 94% 29.95 in 10.0 mi Calm Calm - N/A   Clear
12:56 AM 77.0 °F - 75.2 °F 94% 29.96 in 10.0 mi Calm Calm - N/A   Clear
1:15 AM 77.0 °F - 75.2 °F 94% 29.95 in 10.0 mi Calm Calm - N/A   Clear
1:35 AM 77.0 °F - 75.2 °F 94% 29.95 in 10.0 mi Calm Calm - N/A   Clear
1:56 AM 75.2 °F - 75.2 °F 100% 29.96 in 10.0 mi Calm Calm - N/A   Clear
2:16 AM 77.0 °F - 75.2 °F 94% 29.95 in 10.0 mi Calm Calm - N/A   Clear
2:36 AM 75.2 °F - 75.2 °F 100% 29.96 in 10.0 mi Calm Calm - N/A   Clear
3:16 AM 75.2 °F - 75.2 °F 100% 29.95 in 10.0 mi Calm Calm - N/A   Scattered Clouds
3:38 AM 75.2 °F - 75.2 °F 100% 29.95 in 10.0 mi Calm Calm - N/A   Clear
3:56 AM 75.2 °F - 75.2 °F 100% 29.95 in 10.0 mi Calm Calm - N/A   Clear
4:16 AM 75.2 °F - 75.2 °F 100% 29.95 in 10.0 mi Calm Calm - N/A   Clear
5:15 AM 75.2 °F - 75.2 °F 100% 29.95 in 10.0 mi SSW 3.5 mph - N/A   Clear
5:38 AM 75.2 °F - 75.2 °F 100% 29.96 in 10.0 mi Calm Calm - N/A   Clear
5:57 AM 75.2 °F - 75.2 °F 100% 29.96 in 10.0 mi Calm Calm - N/A   Clear
6:16 AM 75.2 °F - 75.2 °F 100% 29.97 in 7.0 mi Calm Calm - N/A   Clear
6:36 AM 75.2 °F - 75.2 °F 100% 29.98 in 10.0 mi Calm Calm - N/A   Clear
7:15 AM 75.2 °F - 75.2 °F 100% 29.97 in 7.0 mi Calm Calm - N/A   Scattered Clouds
7:36 AM 77.0 °F - 77.0 °F 100% 29.98 in 10.0 mi Calm Calm - N/A   Clear
7:56 AM 78.8 °F - 78.8 °F 100% 29.98 in 10.0 mi Calm Calm - N/A   Clear
8:35 AM 80.6 °F 88.1 °F 78.8 °F 94% 29.99 in 10.0 mi Calm Calm - N/A   Clear
8:56 AM 82.4 °F 92.4 °F 78.8 °F 89% 29.99 in 10.0 mi SW 3.5 mph - N/A   Scattered Clouds
9:16 AM 84.2 °F 96.1 °F 78.8 °F 84% 30.00 in 10.0 mi SW 3.5 mph - N/A   Mostly Cloudy
9:36 AM 84.2 °F 96.1 °F 78.8 °F 84% 30.00 in 10.0 mi West 4.6 mph - N/A   Mostly Cloudy
9:55 AM 84.2 °F 96.1 °F 78.8 °F 84% 30.00 in 10.0 mi WSW 5.8 mph - N/A   Mostly Cloudy
10:15 AM 86.0 °F 99.3 °F 78.8 °F 79% 30.00 in 10.0 mi WNW 6.9 mph - N/A   Mostly Cloudy
10:35 AM 84.2 °F 94.1 °F 77.0 °F 79% 29.99 in 10.0 mi WNW 3.5 mph - N/A   Mostly Cloudy
10:55 AM 86.0 °F 96.9 °F 77.0 °F 74% 29.99 in 10.0 mi West 4.6 mph - N/A   Scattered Clouds
11:15 AM 87.8 °F 97.6 °F 75.2 °F 66% 29.99 in 10.0 mi WSW 6.9 mph - N/A   Scattered Clouds
11:35 AM 89.6 °F 99.8 °F 75.2 °F 62% 29.99 in 10.0 mi Calm Calm - N/A   Mostly Cloudy
11:56 AM 89.6 °F 102.2 °F 77.0 °F 66% 29.99 in 10.0 mi West 5.8 mph - N/A   Mostly Cloudy
12:18 PM 89.6 °F 99.8 °F 75.2 °F 62% 29.98 in 10.0 mi WNW 3.5 mph - N/A   Scattered Clouds
12:35 PM 89.6 °F 99.8 °F 75.2 °F 62% 29.98 in 10.0 mi NW 5.8 mph - N/A   Mostly Cloudy
12:57 PM 89.6 °F 99.8 °F 75.2 °F 62% 29.97 in 10.0 mi West 4.6 mph - N/A   Scattered Clouds
1:15 PM 89.6 °F 99.8 °F 75.2 °F 62% 29.97 in 10.0 mi WNW 3.5 mph - N/A   Scattered Clouds
1:36 PM 91.4 °F 102.5 °F 75.2 °F 59% 29.97 in 10.0 mi NW 4.6 mph - N/A   Scattered Clouds
1:55 PM 91.4 °F 102.5 °F 75.2 °F 59% 29.96 in 10.0 mi WNW 4.6 mph - N/A   Scattered Clouds
2:15 PM 91.4 °F 102.5 °F 75.2 °F 59% 29.96 in 10.0 mi WNW 5.8 mph - N/A   Scattered Clouds
2:35 PM 91.4 °F 100.1 °F 73.4 °F 55% 29.95 in 10.0 mi WSW 3.5 mph - N/A   Scattered Clouds
2:55 PM 91.4 °F 100.1 °F 73.4 °F 55% 29.95 in 10.0 mi Calm Calm - N/A   Clear
3:16 PM 89.6 °F 99.8 °F 75.2 °F 62% 29.95 in 10.0 mi WSW 13.8 mph 19.6 mph N/A   Mostly Cloudy
3:35 PM 82.4 °F 89.5 °F 75.2 °F 79% 29.95 in 0.8 mi SW 8.1 mph 17.3 mph 0.04 in Rain , Thunderstorm Heavy Thunderstorms and Rain
3:56 PM 84.2 °F 92.3 °F 75.2 °F 74% 29.94 in 10.0 mi SSW 8.1 mph - 0.07 in   Mostly Cloudy
4:35 PM 87.8 °F 97.6 °F 75.2 °F 66% 29.93 in 10.0 mi SW 9.2 mph - N/A   Clear
4:55 PM 87.8 °F 97.6 °F 75.2 °F 66% 29.93 in 10.0 mi SW 9.2 mph - N/A   Clear
5:15 PM 87.8 °F 97.6 °F 75.2 °F 66% 29.92 in 10.0 mi SW 8.1 mph - N/A   Clear
5:36 PM 87.8 °F 97.6 °F 75.2 °F 66% 29.92 in 10.0 mi SW 5.8 mph - N/A   Clear
5:56 PM 89.6 °F 99.8 °F 75.2 °F 62% 29.92 in 10.0 mi SSW 5.8 mph - N/A   Clear
6:18 PM 87.8 °F 97.6 °F 75.2 °F 66% 29.92 in 10.0 mi SSW 5.8 mph - N/A   Clear
6:35 PM 87.8 °F 99.7 °F 77.0 °F 70% 29.92 in 10.0 mi SSW 3.5 mph - N/A   Clear
6:56 PM 87.8 °F 99.7 °F 77.0 °F 70% 29.92 in 10.0 mi SW 5.8 mph - N/A   Clear
7:15 PM 87.8 °F 99.7 °F 77.0 °F 70% 29.92 in 10.0 mi SW 4.6 mph - N/A   Clear
7:36 PM 86.0 °F 99.3 °F 78.8 °F 79% 29.91 in 10.0 mi SSW 4.6 mph - N/A   Clear
7:56 PM 84.2 °F 96.1 °F 78.8 °F 84% 29.92 in 10.0 mi SW 3.5 mph - N/A   Clear
8:15 PM 82.4 °F 89.5 °F 75.2 °F 79% 29.92 in 10.0 mi SW 3.5 mph - N/A   Clear
8:35 PM 82.4 °F 90.9 °F 77.0 °F 84% 29.93 in 10.0 mi SW 3.5 mph - N/A   Clear
8:55 PM 82.4 °F 89.5 °F 75.2 °F 79% 29.93 in 10.0 mi SSW 3.5 mph - N/A   Clear
9:16 PM 80.6 °F 86.2 °F 75.2 °F 84% 29.93 in 10.0 mi South 4.6 mph - N/A   Clear
9:38 PM 80.6 °F 86.2 °F 75.2 °F 84% 29.93 in 10.0 mi South 3.5 mph - N/A   Clear
9:56 PM 80.6 °F 86.2 °F 75.2 °F 84% 29.93 in 10.0 mi South 4.6 mph - N/A   Clear
10:17 PM 80.6 °F 86.2 °F 75.2 °F 84% 29.94 in 10.0 mi South 3.5 mph - N/A   Clear
10:36 PM 80.6 °F 86.2 °F 75.2 °F 84% 29.94 in 10.0 mi Calm Calm - N/A   Clear
10:55 PM 78.8 °F - 75.2 °F 89% 29.95 in 10.0 mi Calm Calm - N/A   Clear
11:16 PM 80.6 °F 86.2 °F 75.2 °F 84% 29.95 in 10.0 mi Calm Calm - N/A   Clear
11:36 PM 80.6 °F 86.2 °F 75.2 °F 84% 29.97 in 10.0 mi SSE 3.5 mph - N/A   Clear
11:56 PM 80.6 °F 87.1 °F 77.0 °F 89% 29.96 in 10.0 mi South 4.6 mph - N/A   Clear